Location: Unspecified
(54.0667°N, 18.4333°E)
Time: 06:31:46
(UTC+02:00)

ISS - Pass Details

Date: 27 December 2012
Orbit: 418 x 420 km, 51.6° (Epoch: 12 August)

Event Time Altitude Azimuth Distance (km) Brightness Sun altitude
Rises 16:25:20 0° 273° (W) 2,371 1.1 -7.5°
Reaches altitude 10° 16:29:06 10° 230° (SW) 1,519 0.7 -8.0°
Maximum altitude 16:29:39 10° 220° (SW) 1,503 0.4 -8.1°
Drops below altitude 10° 16:30:13 10° 211° (SSW) 1,525 0.1 -8.1°
Sets 16:34:04 0° 167° (SSE) 2,425 0.3 -8.6°
